100207 D93  0.5+  1.0-    100415 H45  0.2-  0.1+    100609 F65  0.1+  0.1+  
100208 D96  0.0   0.2-    100415 H45  0.2-  0.4+    100609 F65  0.2+  0.0   
100208 D96  0.8+  0.4+    100415 H45  0.2+  0.1+    100609 F65  0.2+  0.0   
100212 H10  0.3-  0.2+    100416 A77  0.3-  0.4+    100609 F65  0.1+  0.1-  
100212 H10  0.1+  0.0     100416 A77  0.1+  0.1-    100609 F65  0.0   0.1-  
100212 H10  0.3+  0.1+    100416 D96  0.3+  0.3-    100609 F65  0.2+  0.1-  
100212 H10  1.1-  0.7+    100416 D96  0.2+  0.3-    100609 F65  0.1+  0.1-  
100215 D96  1.2-  0.0     100417 349  0.6-  0.5+    100609 352  0.3-  0.2-  
100215 D96  1.0-  0.2+    100417 349  0.4-  0.6+    100609 352  0.2-  0.1-  
100215 D93  0.2+  0.8+    100417 900  0.3-  0.1-    100609 352  0.1-  0.0   
100215 D93  1.2+  0.2-    100417 900  0.3-  0.2-    100609 900  0.4-  0.1+  
100216 C10  0.4+  0.1+    100418 C10  0.7-  1.3+    100609 900  0.4-  0.0   
100216 C10  0.3-  0.5+    100418 423  0.0   0.1+    100610 215  0.8+  1.3-  
100216 C10  0.2+  0.7+    100418 423  0.4-  0.3+    100610 215  0.2+  1.2-  
100216 C10  0.4+  0.3+    100419 423  0.3-  0.4+    100610 215 (1.6-  2.1+) 
100216 C10  0.4+  0.1+    100419 423  0.1-  0.4+    100612 H47  0.4-  0.2-  
100216 D96  1.2-  0.8+    100424 844  0.9-  0.5+    100612 H47  0.3-  0.4-  
100216 D96  0.8-  1.0+    100424 844  0.4-  0.2+    100612 H47  0.5-  0.4-  
100217 D96  0.8-  0.5-    100424 844  0.6-  0.2+    100612 D88  0.1-  0.4+  
100217 D96  0.2-  0.4+    100504 H10  0.2-  0.3+    100612 D88  0.0   0.1-  
100217 D96  0.6-  0.9+    100504 H10  0.2-  0.3+    100614 H47  0.3-  0.2-  
100217 D96  0.1-  0.1+    100504 E85  0.1+  0.1-    100614 H47  0.4-  0.0   
100218 704  0.3-  0.1+    100504 E85  0.1+  0.2-    100614 H47  0.3-  0.1-  
100218 704  0.5-  0.8+    100504 E85  0.2+  0.2-    100614 H47  0.0   0.4-  
100218 704  0.7-  0.7+    100504 367  0.9-  0.6+    100614 H47  0.4-  0.2-  
100218 704  0.4-  0.3+    100504 367  0.4-  0.1+    100615 E10  0.1+  0.2-  
100218 704  1.1-  1.2+    100504 900  0.1+  0.1+    100615 E10  0.0   0.1-  
100219 H45  0.1-  0.1+    100504 900  0.6+  0.3+    100615 E10  0.1-  0.2-  
100219 H45  0.1+  0.2-    100505 467  0.1+  0.3-    100615 E10  0.0   0.2-  
100219 H45  0.2+  0.2-    100505 467  0.2+  0.3-    100615 E10  0.0   0.0   
100219 H45  0.4-  0.3-    100505 467  0.1+  0.4-    100615 E10  0.1+  0.1-  
100219 H45  0.0   0.3-    100507 423  0.1+  0.1-    100615 E10  0.0   0.0   
100219 H45  0.1-  0.1-    100507 423  0.0   0.5-    100615 E10  0.1+  0.3-  
100219 H45  0.1+  0.0     100508 834  0.3+  0.0     100615 E10  0.1+  0.2-  
100219 H45  0.1+  0.5-    100508 834  0.3+  0.1-    100615 E10  0.0   0.2-  
100219 349  0.1+  0.1+    100508 834  0.3+  0.1+    100615 E10  0.1+  0.2-  
100219 349  0.4-  0.3+    100508 H45  0.0   0.1-    100615 E10  0.2-  0.1-  
100219 900  0.0   0.2+    100508 H45  0.1+  0.0     100615 E10  0.0   0.1-  
100219 900  0.7-  0.2+    100508 H45  0.1+  0.0     100615 E10  0.2+  0.0   
100220 467  0.2+  0.0     100508 H45  0.1+  0.1-    100617 I32  0.6+  0.7+  
100220 467  0.3+  0.0     100508 H45  0.1-  0.1+    100617 I32  1.1+  1.2-  
100220 467  0.5-  0.1+    100508 H45  0.2+  0.2-    100617 I32  1.0+  1.7-  
100220 E85  0.3+  0.3-    100508 H45  0.1+  0.2-    100619 212  0.5-  0.5+  
100220 E85  0.1+  0.2-    100509 415  0.0   0.1-    100619 212  0.2-  0.5+  
100220 E85  0.0   0.1+    100509 415  0.0   0.1+    100619 212  0.1-  0.6+  
100220 D96  0.1+  0.1-    100510 844  0.3+  0.1+    100620 834  0.5+  0.2-  
100221 204  0.1-  0.1-    100510 844  0.3+  0.0     100620 834  0.2+  0.4-  
100221 204  0.0   0.1+    100510 844  0.3+  0.1+    100620 834  0.2-  0.1-  
100223 D96  0.7-  0.9+    100510 E85  0.0   0.4-    100620 834  0.4+  0.0   
100224 704  0.4-  0.2+    100510 E85  0.1-  0.4-    100620 I32  0.9-  0.6-  
100224 704  0.9-  0.5+    100510 E85  0.0   0.1-    100622 H47 (2.0-  2.4+) 
100224 704 (2.3-  0.4+)   100511 834  0.0   0.1-    100622 H47 (3.4-  4.1+) 
100224 704  1.6-  0.4+    100511 834  0.5+  0.0     100701 415  0.2-  0.1-  
100224 704  1.2-  0.7+    100511 834  0.3+  0.1-    100701 415  0.9-  0.2+  
100225 D96  0.0   0.3+    100511 834  0.0   0.0     100701 213  0.1-  0.4+  
100225 D96  0.4-  0.3+    100511 372  0.4+  0.2+    100701 213  0.1+  0.4+  
100304 585  1.2-  0.4-    100512 372  0.6+  0.7-    100702 850  0.4-  0.2-  
100304 585  0.4+  0.6-    100512 372  0.3+  0.2+    100702 850  0.3-  0.2-  
100304 585  1.2-  0.6-    100512 372  0.3+  0.0     100702 850  0.5-  0.2-  
100304 585  0.5+  0.9-    100512 415  0.1-  0.1-    100706 G96  1.3-  0.5-  
100308 H45  0.2+  0.1-    100512 415  0.1-  0.5-    100706 G96  0.1-  0.2-  
100308 H45  0.1-  0.3-    100512 D96  0.5-  0.7+    100706 G96  0.2-  0.3-  
100308 H45  0.8-  0.3-    100512 D96  0.5-  0.6+    100706 G96  0.2-  0.2-  
100308 H45  0.0   0.1-    100512 D96  0.3-  0.4+    100706 J87  0.4-  0.1+  
100308 H45  0.3-  0.1+    100512 A71  0.6-  0.0     100706 J87  0.3-  0.1+  
100308 H45  0.3+  0.0     100512 A71  0.2-  0.1-    100706 J87  0.3-  0.2+  
100308 H45  0.2+  0.3-    100512 A71  0.3-  0.1+    100707 H10  0.3+  0.1-  
100308 467  0.2+  0.3-    100512 A71  0.7-  0.3-    100707 H10  0.4-  0.8+  
100308 467  0.2+  0.3-    100513 H10  0.2-  0.1+    100707 H10  0.9-  0.2+  
100308 467  0.2+  0.2-    100513 H10  0.1+  0.2+    100707 372  0.3-  1.3+  
100308 E85  1.5+  0.8-    100513 H10  0.2+  0.4+    100707 372  0.3-  0.5+  
100308 E85  0.1-  0.2-    100513 H10  0.4+  0.6+    100708 215  0.1+  0.4+  
100308 E85  0.4+  0.5-    100513 D96  0.3-  0.0     100708 215  0.2+  0.5+  
100309 467  0.5+  0.4-    100513 D96  0.1-  0.2-    100708 215  0.1+  0.3+  
100309 467  0.4+  0.0     100513 D93  1.6+  0.4-    100710 704  1.1-  0.6-  
100309 D96  1.1-  0.9-    100513 D93  0.2+  0.3+    100710 704  0.6-  1.0+  
100309 467  0.2-  0.1+    100513 D93  0.1+  0.6+    100710 704  0.2+  0.1+  
100309 D96  0.7-  0.6-    100514 834  0.3+  0.1-    100710 704  0.2+  1.4+  
100309 D96  0.4-  0.5-    100514 834  0.6+  0.2-    100710 704  1.9+  0.1+  
100310 H45  0.5-  0.2+    100514 367  0.2-  0.1-    100710 561  0.6+  0.6+  
100310 H45  0.2-  0.1+    100514 367  0.2-  0.2-    100710 561  0.7+  0.5-  
100310 H45  0.6-  0.1-    100514 367  0.2-  0.0     100710 561  0.4+  0.2-  
100310 H45  0.2-  0.1-    100514 900  0.3-  0.3+    100711 829  0.1-  0.3+  
100310 H45  0.5-  0.0     100514 900  0.7-  0.2-    100711 829  1.3-  0.3+  
100310 H45  0.3-  0.1+    100515 423  0.6-  0.4+    100711 829  1.8-  0.2-  
100310 H45  0.0   0.2+    100515 423  0.2-  0.2+    100711 829  1.5-  1.0+  
100310 D96 (2.0-  0.3+)   100515 415  0.1+  0.3-    100711 829  0.9-  0.6+  
100310 D96  0.9-  0.3+    100515 415  0.0   0.4-    100711 829  0.2-  0.4+  
100311 467  0.4+  0.1+    100516 213  0.7+  0.2+    100711 829  0.7-  0.1-  
100311 467  0.3+  0.3-    100516 213  0.1+  0.9+    100711 829  1.0-  0.2+  
100311 467  0.3+  0.2-    100516 213  0.9+  0.1+    100715 204  0.4-  0.2+  
100311 D96 (2.3-  0.6+)   100516 D93  0.7+  1.6+    100715 204  0.2-  0.4+  
100311 D96  1.7-  0.3+    100516 D93  1.2+  1.1+    100726 415  0.7-  0.2-  
100311 D93  0.6+  0.7-    100516 D93 (0.3+  2.1+)   100726 415  0.6-  0.1-  
100311 D93  0.7+  0.9-    100517 E94  0.5+  0.1-    100803 349  1.3+  0.6-  
100312 H21  0.0   0.6+    100517 467  0.1+  0.3-    100803 349  0.6+  1.0-  
100312 H21  0.0   0.1-    100517 467  0.0   0.3-    100804 900 (0.9+  3.3+) 
100312 H21  0.1-  0.0     100517 467  0.1+  0.3-    100804 900  0.3+  0.6-  
100312 D96  0.7-  0.1-    100517 E94  0.4+  0.2-    100807 235  0.4-  1.6-  
100312 D96  0.3-  0.1+    100518 C10  1.0+  0.7+    100807 235  1.0+  0.0   
NAKANO
         **** Don't distribute anyone except personal use only ****
           (C) Copyright 2010 Orbit.Astro.Assoc./ComputingSection
write mail from CFAD0::NAKANO on 2010-08-21 03:15:12(JST).


    P/2010 A5 (LINEAR)
Epoch 2010 May 4.0 TT = JDT 2455320.5
T 2010 Apr. 19.31843 TT                                 Nakano
q   1.7120296            (2000.0)            P               Q
n   0.08559190     Peri.  306.70874     -0.70738295     +0.69974679
a   5.0993435      Node   277.94022     -0.61211393     -0.67706985
e   0.6642647      Incl.    5.78438     -0.35344857     -0.22788340
P  11.52 (+/- 0.11 day)
From 396 observations 2010 Jan. 14-May 14, mean residual 0".54.
Residuals in seconds of arc
2010/                     100216 C10  0.2+  0.7+    100324 D96  0.6+  0.4-
100114 704  0.3+  0.3+    100216 C10  0.4+  0.3+    100325 D96  1.5+  0.7-
100114 704  0.1-  1.2+    100216 C10  0.5+  0.1+    100325 D96  1.4+  0.8-
100114 704  0.4-  0.2+    100216 D96  1.2-  0.8+    100326 H45  0.2+  0.2+
100114 704  0.3-  0.1+    100216 D96  0.8-  1.0+    100326 H45  0.2-  0.3-
100114 704  0.2+  0.4+    100217 D96  0.8-  0.5-    100326 H45  0.2+  0.0
100115 143  0.7-  0.3+    100217 D96  0.2-  0.4+    100326 H45  0.3-  0.1+
100115 143  0.1+  0.3-    100217 D96  0.6-  0.9+    100326 H45  0.3-  0.1-
100115 H10  0.4-  0.2+    100217 D96  0.1-  0.1+    100326 H45  0.1-  0.4-
100115 H10  0.5-  0.2+    100218 704  0.3-  0.1+    100326 H45  0.0   0.0
100115 704  0.6+  0.2+    100218 704  0.5-  0.8+    100326 900  0.1-  0.3+
100115 H10  0.0   0.1-    100218 704  0.7-  0.7+    100326 349  0.8-  0.4-
100115 H10  0.3-  0.5-    100218 704  0.3-  0.3+    100326 349  0.5-  0.1-
100115 H10  0.0   0.2-    100218 704  1.1-  1.2+    100326 900  0.2-  0.1+
100115 H10  0.8-  0.0     100219 H45  0.1-  0.1+    100326 D93  0.1+  0.5+
100115 H10  0.2-  0.0     100219 H45  0.2+  0.2-    100326 D96  0.7-  0.9-
100115 H10  0.6-  0.1+    100219 H45  0.2+  0.2-    100326 D93 (0.7+  2.0-)
100115 H10  0.5+  0.2-    100219 H45  0.4-  0.3-    100326 D93  1.3+  1.6+
100115 H10  0.6-  0.1-    100219 H45  0.0   0.3-    100326 D95  0.0   0.1+
100115 H10  0.3-  0.2-    100219 H45  0.1-  0.1-    100327 H45 (2.6+  0.1-)
100115 H10  0.8-  0.0     100219 H45  0.1+  0.0     100327 H45  0.8+  0.1-
